Tracking 17631 objects as of 3-May-2016
HD Live streaming from Space Station
objects crossing your sky now

W75/ABS-1B (HOT BIRD 3)

Track W75/ABS-1B (HOT BIRD 3) now!
W75/ABS-1B (HOT BIRD 3) is classified as:


NORAD ID: 24931
Int'l Code: 1997-049A
Perigee: 35,766.7 km
Apogee: 35,973.6 km
Inclination: 5.6 °
Period: 1,440.0 minutes
Semi major axis: 42241 km
RCS: 15.8489 m2 (large)
Launch date: September 2, 1997
Source: European Telecommunications Satellite Organization (EUTE)
Launch site: FRENCH GUIANA (FRGUI)

Cable programming; direct-to-home broadcasting; Europe, North Africa, 20 active channels
Your satellite tracking list
Your tracking list is empty





NASA's NSSDC Master Catalog

Two Line Element Set (TLE):
1 24931U 97049A   16123.81318296 -.00000223  00000-0  00000+0 0  9996
2 24931   5.6283  56.7976 0024490 314.0094 221.3954  1.02481796 68823
Source of the keplerian elements: AFSPC

N2YO: 401